| time (UTC) | temp C | wind direction | speed KPH | gust KPH | rain 1hr cm | rain 24hr cm | rain mn cm | humidity % | barometer mb |
| 20260508033735 | 10 | 155 | 0.0 | 4.8 | 0.00 | 0.43 | 0.43 | 82 | 1007.9 |
| 20260508033221 | 11 | 155 | 0.0 | 4.8 | 0.00 | 0.43 | 0.43 | 82 | 1007.8 |
| 20260508032736 | 11 | 155 | 0.0 | 6.4 | 0.00 | 0.56 | 0.43 | 82 | 1007.8 |
| 20260508032244 | 11 | 155 | 3.2 | 6.4 | 0.00 | 0.56 | 0.43 | 82 | 1007.8 |
| 20260508031739 | 11 | 184 | 3.2 | 6.4 | 0.00 | 0.56 | 0.43 | 82 | 1007.9 |
| 20260508031231 | 11 | 184 | 0.0 | 6.4 | 0.00 | 0.56 | 0.43 | 81 | 1008.0 |
| 20260508030744 | 11 | 150 | 1.6 | 6.4 | 0.00 | 0.56 | 0.43 | 81 | 1007.9 |
| 20260508030235 | 11 | 142 | 3.2 | 6.4 | 0.00 | 0.56 | 0.43 | 81 | 1007.9 |
| 20260508025744 | 11 | 142 | 1.6 | 6.4 | 0.00 | 0.56 | 0.43 | 81 | 1008.0 |
| 20260508025235 | 11 | 142 | 1.6 | 6.4 | 0.00 | 0.56 | 0.43 | 80 | 1008.1 |
| 20260508024723 | 11 | 142 | 0.0 | 3.2 | 0.00 | 0.56 | 0.43 | 79 | 1007.9 |
| 20260508024237 | 11 | 142 | 0.0 | 1.6 | 0.00 | 0.56 | 0.43 | 79 | 1007.8 |
| 20260508023721 | 11 | 142 | 0.0 | 1.6 | 0.00 | 0.56 | 0.43 | 79 | 1008.0 |
| 20260508023255 | 11 | 142 | 1.6 | 1.6 | 0.00 | 0.56 | 0.43 | 78 | 1008.1 |
| 20260508022742 | 12 | 142 | 0.0 | 0.0 | 0.00 | 0.74 | 0.43 | 77 | 1008.1 |
| 20260508022235 | 12 | 142 | 0.0 | 6.4 | 0.00 | 0.74 | 0.43 | 77 | 1008.1 |
| 20260508021724 | 12 | 142 | 0.0 | 6.4 | 0.00 | 0.74 | 0.43 | 77 | 1008.2 |
| 20260508021221 | 12 | 142 | 0.0 | 8.0 | 0.00 | 0.74 | 0.43 | 76 | 1008.1 |
| 20260508020736 | 12 | 142 | 1.6 | 8.0 | 0.00 | 0.74 | 0.43 | 76 | 1008.1 |
| 20260508020225 | 12 | 142 | 0.0 | 6.4 | 0.00 | 0.74 | 0.43 | 76 | 1008.0 |
| 20260508015743 | 12 | 142 | 1.6 | 11.3 | 0.00 | 0.74 | 0.43 | 75 | 1008.0 |
| 20260508015234 | 12 | 142 | 8.0 | 11.3 | 0.00 | 0.74 | 0.43 | 75 | 1007.9 |
| 20260508014723 | 12 | 171 | 4.8 | 8.0 | 0.00 | 0.74 | 0.43 | 74 | 1007.9 |
| 20260508014239 | 12 | 160 | 0.0 | 9.7 | 0.00 | 0.74 | 0.43 | 73 | 1007.8 |
| 20260508013726 | 12 | 175 | 4.8 | 9.7 | 0.00 | 0.74 | 0.43 | 73 | 1007.8 |
| 20260508013219 | 13 | 134 | 4.8 | 9.7 | 0.00 | 0.74 | 0.43 | 72 | 1007.7 |
| 20260508012738 | 13 | 175 | 3.2 | 8.0 | 0.00 | 0.74 | 0.43 | 71 | 1007.7 |
| 20260508012225 | 13 | 139 | 4.8 | 11.3 | 0.00 | 0.74 | 0.43 | 71 | 1007.7 |
| 20260508011721 | 13 | 178 | 3.2 | 11.3 | 0.00 | 0.74 | 0.43 | 70 | 1007.8 |
| 20260508011303 | 13 | 146 | 3.2 | 12.9 | 0.00 | 0.74 | 0.43 | 69 | 1007.7 |
| 20260508010733 | 13 | 181 | 3.2 | 12.9 | 0.00 | 0.74 | 0.43 | 69 | 1007.6 |
| 20260508010226 | 13 | 163 | 6.4 | 14.5 | 0.00 | 0.74 | 0.43 | 67 | 1007.6 |
| 20260508005742 | 14 | 126 | 6.4 | 14.5 | 0.00 | 0.74 | 0.43 | 66 | 1007.5 |
| 20260508005234 | 14 | 143 | 6.4 | 14.5 | 0.00 | 0.74 | 0.43 | 63 | 1007.5 |
| 20260508004723 | 14 | 103 | 1.6 | 16.1 | 0.00 | 0.74 | 0.43 | 61 | 1007.4 |
| 20260508004239 | 15 | 159 | 8.0 | 16.1 | 0.00 | 0.74 | 0.43 | 59 | 1007.3 |
| 20260508003730 | 15 | 150 | 8.0 | 9.7 | 0.00 | 0.74 | 0.43 | 53 | 1007.3 |
| 20260508003244 | 15 | 228 | 0.0 | 0.0 | 0.00 | 0.74 | 0.43 | 51 | 1007.1 |
| 20260508002735 | 15 | 228 | 0.0 | 1.6 | 0.00 | 0.74 | 0.43 | 51 | 1007.0 |
| 20260508002242 | 15 | 228 | 0.0 | 1.6 | 0.00 | 0.74 | 0.43 | 50 | 1006.9 |
| 20260508001733 | 16 | 234 | 0.0 | 1.6 | 0.00 | 0.74 | 0.43 | 49 | 1006.8 |
| 20260508001220 | 16 | 55 | 0.0 | 0.0 | 0.00 | 0.74 | 0.43 | 47 | 1006.8 |
| 20260508000737 | 16 | 55 | 0.0 | 0.0 | 0.00 | 0.74 | 0.43 | 46 | 1006.8 |
| 20260508000229 | 16 | 55 | 0.0 | 0.0 | 0.00 | 0.74 | 0.43 | 47 | 1006.6 |
| 20260507235739 | 16 | 55 | 0.0 | 0.0 | 0.00 | 0.74 | 0.43 | 46 | 1006.6 |
| 20260507235226 | 16 | 55 | 0.0 | 1.6 | 0.00 | 0.74 | 0.43 | 45 | 1006.7 |
| 20260507234740 | 17 | 55 | 0.0 | 1.6 | 0.00 | 0.74 | 0.43 | 45 | 1006.6 |
| 20260507234229 | 17 | 55 | 0.0 | 0.0 | 0.00 | 0.74 | 0.43 | 44 | 1006.6 |
| 20260507233805 | 17 | 55 | 0.0 | 0.0 | 0.00 | 0.74 | 0.43 | 43 | 1006.5 |
| 20260507233232 | 17 | 55 | 0.0 | 3.2 | 0.00 | 0.74 | 0.43 | 43 | 1006.5 |
| 20260507232723 | 17 | 55 | 0.0 | 3.2 | 0.00 | 0.74 | 0.43 | 42 | 1006.5 |
| 20260507232236 | 17 | 197 | 0.0 | 1.6 | 0.00 | 0.74 | 0.43 | 42 | 1006.4 |
| 20260507231725 | 17 | 13 | 0.0 | 1.6 | 0.00 | 0.74 | 0.43 | 42 | 1006.4 |
| 20260507231241 | 17 | 13 | 1.6 | 3.2 | 0.00 | 0.74 | 0.43 | 43 | 1006.3 |
| 20260507230729 | 18 | 13 | 1.6 | 4.8 | 0.00 | 0.74 | 0.43 | 42 | 1006.4 |
| 20260507230243 | 18 | 13 | 1.6 | 4.8 | 0.00 | 0.74 | 0.43 | 41 | 1006.3 |
| 20260507225757 | 18 | 29 | 0.0 | 6.4 | 0.00 | 0.74 | 0.43 | 42 | 1006.4 |
| 20260507225225 | 18 | 12 | 1.6 | 6.4 | 0.00 | 0.74 | 0.43 | 39 | 1006.3 |
| 20260507224718 | 18 | 360 | 3.2 | 11.3 | 0.00 | 0.74 | 0.43 | 38 | 1006.3 |
| 20260507224237 | 18 | 5 | 1.6 | 11.3 | 0.00 | 0.74 | 0.43 | 40 | 1006.2 |
| 20260507223744 | 19 | 17 | 8.0 | 11.3 | 0.00 | 0.74 | 0.43 | 40 | 1006.4 |
| 20260507223257 | 19 | 18 | 1.6 | 11.3 | 0.00 | 0.74 | 0.43 | 38 | 1006.4 |
| 20260507222732 | 18 | 331 | 0.0 | 8.0 | 0.00 | 0.74 | 0.43 | 39 | 1006.5 |
| 20260507222222 | 18 | 38 | 3.2 | 9.7 | 0.00 | 0.74 | 0.43 | 41 | 1006.4 |
| 20260507221736 | 18 | 298 | 3.2 | 9.7 | 0.00 | 0.74 | 0.43 | 38 | 1006.5 |
| 20260507221225 | 19 | 290 | 3.2 | 9.7 | 0.00 | 0.74 | 0.43 | 38 | 1006.4 |
| 20260507220801 | 19 | 5 | 1.6 | 9.7 | 0.00 | 0.74 | 0.43 | 39 | 1006.5 |
| 20260507220301 | 20 | 306 | 1.6 | 8.0 | 0.00 | 0.74 | 0.43 | 36 | 1006.4 |
| 20260507215747 | 20 | 55 | 0.0 | 11.3 | 0.00 | 0.74 | 0.43 | 37 | 1006.5 |
| 20260507215241 | 20 | 39 | 1.6 | 11.3 | 0.00 | 0.74 | 0.43 | 38 | 1006.4 |
| 20260507214732 | 20 | 271 | 1.6 | 9.7 | 0.00 | 0.74 | 0.43 | 37 | 1006.4 |
| 20260507214221 | 19 | 344 | 3.2 | 9.7 | 0.00 | 0.74 | 0.43 | 39 | 1006.5 |
| 20260507213737 | 19 | 320 | 6.4 | 9.7 | 0.00 | 0.74 | 0.43 | 37 | 1006.6 |
| 20260507213244 | 19 | 312 | 3.2 | 11.3 | 0.00 | 0.74 | 0.43 | 37 | 1006.5 |
| 20260507212738 | 20 | 265 | 6.4 | 14.5 | 0.00 | 0.74 | 0.43 | 36 | 1006.4 |
| 20260507212225 | 20 | 280 | 9.7 | 14.5 | 0.00 | 0.74 | 0.43 | 35 | 1006.4 |
| 20260507211741 | 20 | 311 | 1.6 | 14.5 | 0.00 | 0.74 | 0.43 | 36 | 1006.3 |
| 20260507211233 | 20 | 272 | 9.7 | 17.7 | 0.00 | 0.74 | 0.43 | 38 | 1006.3 |
| 20260507210722 | 20 | 355 | 3.2 | 12.9 | 0.00 | 0.74 | 0.43 | 42 | 1006.2 |
| 20260507210237 | 20 | 210 | 3.2 | 12.9 | 0.00 | 0.74 | 0.43 | 36 | 1006.2 |
| 20260507205744 | 20 | 355 | 4.8 | 12.9 | 0.00 | 0.74 | 0.43 | 41 | 1006.1 |
| 20260507205255 | 20 | 40 | 9.7 | 12.9 | 0.00 | 0.74 | 0.43 | 40 | 1006.1 |
| 20260507204741 | 20 | 304 | 8.0 | 11.3 | 0.00 | 0.74 | 0.43 | 37 | 1006.3 |
| 20260507204237 | 20 | 299 | 1.6 | 17.7 | 0.00 | 0.74 | 0.43 | 37 | 1006.2 |
| 20260507203725 | 20 | 360 | 1.6 | 17.7 | 0.00 | 0.74 | 0.43 | 42 | 1006.2 |
| 20260507203240 | 20 | 65 | 1.6 | 8.0 | 0.00 | 0.74 | 0.43 | 41 | 1006.1 |
| 20260507202729 | 20 | 304 | 1.6 | 19.3 | 0.00 | 0.74 | 0.43 | 39 | 1006.2 |
| 20260507202243 | 20 | 59 | 4.8 | 19.3 | 0.00 | 0.74 | 0.43 | 43 | 1006.2 |
| 20260507201734 | 20 | 311 | 1.6 | 9.7 | 0.00 | 0.74 | 0.43 | 41 | 1006.3 |
| 20260507201242 | 19 | 319 | 3.2 | 16.1 | 0.00 | 0.74 | 0.43 | 41 | 1006.4 |
| 20260507200739 | 20 | 283 | 6.4 | 16.1 | 0.00 | 0.74 | 0.43 | 39 | 1006.4 |
| 20260507200229 | 20 | 277 | 9.7 | 14.5 | 0.00 | 0.74 | 0.43 | 40 | 1006.4 |
| 20260507195721 | 19 | 292 | 4.8 | 14.5 | 0.00 | 0.74 | 0.43 | 38 | 1006.4 |
| 20260507195235 | 20 | 227 | 4.8 | 14.5 | 0.00 | 0.74 | 0.43 | 41 | 1006.4 |
| 20260507194729 | 20 | 279 | 4.8 | 16.1 | 0.00 | 0.74 | 0.43 | 37 | 1006.5 |
| 20260507194244 | 20 | 320 | 6.4 | 16.1 | 0.00 | 0.74 | 0.43 | 38 | 1006.6 |
| 20260507193735 | 20 | 340 | 4.8 | 11.3 | 0.00 | 0.74 | 0.43 | 41 | 1006.7 |
| 20260507193247 | 20 | 298 | 3.2 | 11.3 | 0.00 | 0.74 | 0.43 | 41 | 1006.7 |
| 20260507192739 | 20 | 336 | 3.2 | 11.3 | 0.00 | 0.74 | 0.43 | 41 | 1006.6 |
| 20260507192228 | 20 | 312 | 4.8 | 9.7 | 0.00 | 0.74 | 0.43 | 44 | 1006.7 |
| 20260507191743 | 20 | 297 | 1.6 | 11.3 | 0.00 | 0.74 | 0.43 | 38 | 1006.9 |
| 20260507191233 | 20 | 285 | 3.2 | 11.3 | 0.00 | 0.74 | 0.43 | 37 | 1007.0 |
| 20260507190742 | 20 | 355 | 1.6 | 11.3 | 0.00 | 0.74 | 0.43 | 45 | 1007.1 |
| 20260507190232 | 20 | 281 | 8.0 | 11.3 | 0.00 | 0.74 | 0.43 | 40 | 1007.1 |
| 20260507185743 | 20 | 285 | 4.8 | 17.7 | 0.00 | 0.74 | 0.43 | 39 | 1007.0 |
| 20260507185234 | 20 | 43 | 1.6 | 17.7 | 0.00 | 0.74 | 0.43 | 41 | 1007.1 |
| 20260507184721 | 19 | 46 | 9.7 | 17.7 | 0.00 | 0.74 | 0.43 | 46 | 1007.2 |
| 20260507184235 | 19 | 218 | 6.4 | 12.9 | 0.00 | 0.74 | 0.43 | 43 | 1007.2 |
| 20260507183755 | 19 | 16 | 4.8 | 14.5 | 0.00 | 0.74 | 0.43 | 46 | 1007.3 |
| 20260507183223 | 19 | 311 | 3.2 | 14.5 | 0.00 | 0.74 | 0.43 | 47 | 1007.4 |
| 20260507182738 | 18 | 10 | 3.2 | 16.1 | 0.00 | 0.74 | 0.43 | 46 | 1007.5 |
| 20260507182233 | 18 | 138 | 4.8 | 16.1 | 0.00 | 0.74 | 0.43 | 45 | 1007.6 |
| 20260507181742 | 18 | 59 | 8.0 | 11.3 | 0.00 | 0.74 | 0.43 | 48 | 1007.6 |
| 20260507181304 | 18 | 19 | 4.8 | 11.3 | 0.00 | 0.74 | 0.43 | 49 | 1007.6 |
| 20260507180734 | 18 | 36 | 8.0 | 11.3 | 0.00 | 0.74 | 0.43 | 47 | 1007.8 |
| 20260507180225 | 18 | 271 | 3.2 | 11.3 | 0.00 | 0.74 | 0.43 | 42 | 1007.7 |
| 20260507175739 | 18 | 19 | 6.4 | 20.9 | 0.00 | 0.74 | 0.43 | 51 | 1007.8 |
| 20260507175252 | 18 | 21 | 9.7 | 20.9 | 0.00 | 0.74 | 0.43 | 46 | 1007.7 |
| 20260507174744 | 17 | 14 | 11.3 | 17.7 | 0.00 | 0.74 | 0.43 | 52 | 1007.9 |
| 20260507174254 | 17 | 5 | 1.6 | 16.1 | 0.00 | 0.74 | 0.43 | 45 | 1008.0 |
| 20260507173721 | 17 | 25 | 4.8 | 14.5 | 0.00 | 0.74 | 0.43 | 47 | 1008.2 |
| 20260507173235 | 17 | 360 | 8.0 | 12.9 | 0.00 | 0.74 | 0.43 | 52 | 1008.3 |
| 20260507172743 | 17 | 192 | 9.7 | 22.5 | 0.00 | 0.74 | 0.43 | 42 | 1008.3 |
| 20260507172235 | 17 | 325 | 14.5 | 22.5 | 0.00 | 0.74 | 0.43 | 45 | 1008.3 |
| 20260507171722 | 17 | 284 | 8.0 | 19.3 | 0.00 | 0.74 | 0.43 | 41 | 1008.5 |
| 20260507171237 | 17 | 12 | 3.2 | 14.5 | 0.00 | 0.74 | 0.43 | 46 | 1008.5 |
| 20260507170724 | 17 | 317 | 6.4 | 16.1 | 0.00 | 0.74 | 0.43 | 49 | 1008.5 |
| 20260507170240 | 17 | 252 | 8.0 | 16.1 | 0.00 | 0.74 | 0.43 | 49 | 1008.6 |
| 20260507165728 | 17 | 285 | 4.8 | 16.1 | 0.00 | 0.74 | 0.43 | 47 | 1008.6 |
| 20260507165221 | 17 | 257 | 3.2 | 14.5 | 0.00 | 0.74 | 0.43 | 51 | 1008.6 |
| 20260507164802 | 17 | 319 | 3.2 | 22.5 | 0.00 | 0.74 | 0.43 | 47 | 1008.6 |
| 20260507164249 | 17 | 244 | 4.8 | 22.5 | 0.00 | 0.74 | 0.43 | 49 | 1008.7 |
| 20260507163801 | 17 | 317 | 8.0 | 12.9 | 0.00 | 0.74 | 0.43 | 52 | 1008.9 |
| 20260507163300 | 16 | 18 | 4.8 | 14.5 | 0.00 | 0.74 | 0.43 | 52 | 1008.8 |
| 20260507162730 | 16 | 67 | 3.2 | 16.1 | 0.00 | 0.76 | 0.43 | 51 | 1008.9 |
| 20260507162220 | 16 | 315 | 6.4 | 16.1 | 0.00 | 0.76 | 0.43 | 54 | 1009.0 |
| 20260507161738 | 16 | 11 | 8.0 | 14.5 | 0.00 | 0.76 | 0.43 | 56 | 1009.0 |
| 20260507161227 | 16 | 248 | 1.6 | 14.5 | 0.00 | 0.76 | 0.43 | 58 | 1009.2 |
| 20260507160741 | 16 | 20 | 4.8 | 20.9 | 0.00 | 0.76 | 0.43 | 57 | 1009.2 |
| 20260507160230 | 16 | 20 | 11.3 | 20.9 | 0.00 | 0.76 | 0.43 | 59 | 1009.3 |
| 20260507155743 | 16 | 303 | 4.8 | 17.7 | 0.00 | 0.76 | 0.43 | 57 | 1009.3 |
| 20260507155234 | 15 | 355 | 9.7 | 16.1 | 0.00 | 0.76 | 0.43 | 53 | 1009.3 |
| 20260507154744 | 15 | 44 | 9.7 | 14.5 | 0.00 | 0.76 | 0.43 | 54 | 1009.4 |
| 20260507154233 | 15 | 315 | 6.4 | 14.5 | 0.00 | 0.76 | 0.43 | 60 | 1009.5 |
| 20260507153739 | 15 | 276 | 6.4 | 11.3 | 0.00 | 0.76 | 0.43 | 55 | 1009.7 |
| 20260507153229 | 15 | 331 | 4.8 | 12.9 | 0.00 | 0.76 | 0.43 | 62 | 1009.6 |
| 20260507152744 | 15 | 257 | 11.3 | 17.7 | 0.00 | 0.76 | 0.43 | 54 | 1009.9 |
| 20260507152234 | 15 | 306 | 6.4 | 17.7 | 0.00 | 0.76 | 0.43 | 54 | 1010.1 |
| 20260507151723 | 15 | 286 | 6.4 | 12.9 | 0.00 | 0.76 | 0.43 | 56 | 1010.0 |
| 20260507151237 | 15 | 311 | 1.6 | 12.9 | 0.00 | 0.76 | 0.43 | 59 | 1010.1 |
| 20260507150724 | 15 | 5 | 4.8 | 16.1 | 0.00 | 0.76 | 0.43 | 58 | 1010.0 |
| 20260507150239 | 14 | 21 | 11.3 | 19.3 | 0.00 | 0.76 | 0.43 | 61 | 1010.0 |
| 20260507145727 | 14 | 290 | 4.8 | 19.3 | 0.00 | 0.76 | 0.43 | 64 | 1010.2 |
| 20260507145221 | 14 | 40 | 1.6 | 12.9 | 0.00 | 0.76 | 0.43 | 65 | 1010.1 |
| 20260507144756 | 14 | 346 | 6.4 | 14.5 | 0.00 | 0.76 | 0.43 | 62 | 1010.2 |
| 20260507144223 | 13 | 302 | 3.2 | 14.5 | 0.00 | 0.76 | 0.43 | 62 | 1010.2 |
| 20260507143737 | 13 | 298 | 6.4 | 12.9 | 0.00 | 0.76 | 0.43 | 65 | 1010.3 |
| 20260507143229 | 13 | 29 | 3.2 | 9.7 | 0.00 | 0.76 | 0.43 | 70 | 1010.3 |
| 20260507142743 | 13 | 333 | 0.0 | 14.5 | 0.00 | 0.76 | 0.43 | 71 | 1010.4 |
| 20260507142235 | 13 | 338 | 6.4 | 14.5 | 0.00 | 0.76 | 0.43 | 68 | 1010.5 |
| 20260507141722 | 13 | 271 | 1.6 | 14.5 | 0.00 | 0.76 | 0.43 | 71 | 1010.5 |
| 20260507141242 | 13 | 322 | 1.6 | 9.7 | 0.00 | 0.76 | 0.43 | 72 | 1010.5 |
| 20260507140758 | 12 | 355 | 1.6 | 8.0 | 0.00 | 0.76 | 0.43 | 77 | 1010.5 |
| 20260507140245 | 12 | 343 | 0.0 | 16.1 | 0.00 | 0.76 | 0.43 | 75 | 1010.5 |
| 20260507135739 | 12 | 296 | 3.2 | 16.1 | 0.00 | 0.76 | 0.43 | 78 | 1010.4 |
| 20260507135227 | 12 | 311 | 3.2 | 12.9 | 0.00 | 0.76 | 0.43 | 76 | 1010.5 |
| 20260507134800 | 12 | 261 | 3.2 | 12.9 | 0.00 | 0.76 | 0.43 | 75 | 1010.6 |
| 20260507134231 | 12 | 51 | 1.6 | 9.7 | 0.00 | 0.76 | 0.43 | 81 | 1010.5 |
| 20260507133722 | 11 | 255 | 3.2 | 8.0 | 0.00 | 0.76 | 0.43 | 80 | 1010.5 |
| 20260507133238 | 11 | 327 | 1.6 | 8.0 | 0.00 | 0.76 | 0.43 | 82 | 1010.6 |
| 20260507132747 | 11 | 5 | 1.6 | 9.7 | 0.00 | 0.76 | 0.43 | 83 | 1010.4 |
| 20260507132307 | 11 | 11 | 1.6 | 9.7 | 0.00 | 0.76 | 0.43 | 82 | 1010.4 |
| 20260507131733 | 11 | 329 | 3.2 | 8.0 | 0.00 | 0.76 | 0.43 | 83 | 1010.4 |
| 20260507131222 | 11 | 298 | 4.8 | 9.7 | 0.00 | 0.76 | 0.43 | 85 | 1010.4 |
| 20260507130738 | 11 | 323 | 1.6 | 11.3 | 0.00 | 0.76 | 0.43 | 84 | 1010.5 |
| 20260507130227 | 11 | 316 | 3.2 | 11.3 | 0.00 | 0.76 | 0.43 | 86 | 1010.4 |
| 20260507125801 | 11 | 269 | 3.2 | 11.3 | 0.00 | 0.76 | 0.43 | 86 | 1010.5 |
| 20260507125232 | 10 | 345 | 6.4 | 8.0 | 0.00 | 0.76 | 0.43 | 88 | 1010.4 |
| 20260507124743 | 10 | 327 | 3.2 | 8.0 | 0.00 | 0.76 | 0.43 | 88 | 1010.5 |
| 20260507124235 | 10 | 280 | 1.6 | 8.0 | 0.00 | 0.76 | 0.43 | 88 | 1010.6 |
| 20260507123724 | 10 | 280 | 1.6 | 8.0 | 0.00 | 0.76 | 0.43 | 88 | 1010.4 |
| 20260507123240 | 10 | 316 | 0.0 | 6.4 | 0.00 | 0.76 | 0.43 | 89 | 1010.5 |
| 20260507122727 | 10 | 222 | 0.0 | 6.4 | 0.00 | 0.76 | 0.43 | 89 | 1010.6 |
| 20260507122222 | 10 | 312 | 1.6 | 11.3 | 0.00 | 0.76 | 0.43 | 89 | 1010.6 |
| 20260507121738 | 10 | 305 | 4.8 | 11.3 | 0.00 | 0.76 | 0.43 | 88 | 1010.5 |
| 20260507121226 | 10 | 292 | 1.6 | 6.4 | 0.00 | 0.76 | 0.43 | 89 | 1010.5 |
| 20260507120739 | 10 | 296 | 3.2 | 6.4 | 0.00 | 0.76 | 0.43 | 88 | 1010.6 |
| 20260507120234 | 10 | 349 | 3.2 | 8.0 | 0.00 | 0.76 | 0.43 | 89 | 1010.6 |
| 20260507115741 | 10 | 295 | 1.6 | 11.3 | 0.00 | 0.76 | 0.43 | 89 | 1010.5 |
| 20260507115232 | 10 | 295 | 3.2 | 11.3 | 0.00 | 0.76 | 0.43 | 88 | 1010.5 |
| 20260507114721 | 10 | 252 | 1.6 | 6.4 | 0.00 | 0.76 | 0.43 | 90 | 1010.5 |
| 20260507114257 | 10 | 321 | 4.8 | 9.7 | 0.00 | 0.76 | 0.43 | 90 | 1010.5 |
| 20260507113754 | 10 | 303 | 1.6 | 9.7 | 0.00 | 0.76 | 0.43 | 91 | 1010.4 |
| 20260507113243 | 10 | 308 | 3.2 | 6.4 | 0.00 | 0.76 | 0.43 | 91 | 1010.3 |
| 20260507112734 | 10 | 271 | 0.0 | 8.0 | 0.00 | 0.76 | 0.43 | 91 | 1010.2 |
| 20260507112224 | 10 | 302 | 1.6 | 8.0 | 0.00 | 0.76 | 0.43 | 91 | 1010.2 |
| 20260507111741 | 10 | 290 | 1.6 | 8.0 | 0.00 | 0.76 | 0.43 | 91 | 1010.1 |
| 20260507111233 | 10 | 297 | 1.6 | 4.8 | 0.00 | 0.76 | 0.43 | 92 | 1010.0 |
| 20260507110722 | 10 | 294 | 1.6 | 6.4 | 0.00 | 0.76 | 0.43 | 92 | 1009.8 |
| 20260507110259 | 10 | 253 | 1.6 | 8.0 | 0.00 | 0.76 | 0.43 | 91 | 1009.8 |
| 20260507105727 | 10 | 253 | 1.6 | 8.0 | 0.00 | 0.76 | 0.43 | 91 | 1009.6 |
| 20260507105222 | 10 | 263 | 3.2 | 6.4 | 0.00 | 0.76 | 0.43 | 92 | 1009.7 |
| 20260507104803 | 10 | 263 | 1.6 | 6.4 | 0.00 | 0.76 | 0.43 | 92 | 1009.6 |
| 20260507104232 | 10 | 262 | 1.6 | 6.4 | 0.00 | 0.76 | 0.43 | 92 | 1009.6 |
| 20260507103743 | 10 | 316 | 1.6 | 6.4 | 0.00 | 0.76 | 0.43 | 92 | 1009.6 |
| 20260507103233 | 10 | 316 | 1.6 | 4.8 | 0.00 | 0.76 | 0.43 | 92 | 1009.5 |
| 20260507102744 | 10 | 316 | 1.6 | 4.8 | 0.00 | 0.76 | 0.43 | 92 | 1009.4 |
| 20260507102233 | 10 | 316 | 1.6 | 4.8 | 0.00 | 0.76 | 0.43 | 92 | 1009.2 |
| 20260507101723 | 10 | 316 | 1.6 | 3.2 | 0.00 | 0.76 | 0.43 | 92 | 1009.1 |
| 20260507101238 | 10 | 316 | 0.0 | 6.4 | 0.00 | 0.76 | 0.43 | 92 | 1009.0 |
| 20260507100723 | 10 | 316 | 1.6 | 6.4 | 0.00 | 0.76 | 0.43 | 92 | 1009.3 |
| 20260507100240 | 10 | 316 | 1.6 | 3.2 | 0.00 | 0.76 | 0.43 | 92 | 1009.2 |
| 20260507095732 | 10 | 301 | 1.6 | 6.4 | 0.00 | 0.76 | 0.43 | 92 | 1009.2 |
| 20260507095244 | 10 | 301 | 0.0 | 6.4 | 0.00 | 0.76 | 0.43 | 92 | 1009.2 |
| 20260507094755 | 10 | 315 | 1.6 | 3.2 | 0.00 | 0.76 | 0.43 | 92 | 1009.1 |
| 20260507094222 | 10 | 315 | 1.6 | 3.2 | 0.00 | 0.76 | 0.43 | 91 | 1009.1 |
| 20260507093737 | 10 | 315 | 1.6 | 3.2 | 0.00 | 0.76 | 0.43 | 91 | 1009.1 |
| 20260507093230 | 10 | 315 | 0.0 | 1.6 | 0.00 | 0.76 | 0.43 | 91 | 1009.1 |
| 20260507092744 | 10 | 315 | 0.0 | 4.8 | 0.00 | 0.76 | 0.43 | 91 | 1009.0 |
| 20260507092255 | 10 | 315 | 1.6 | 4.8 | 0.00 | 0.76 | 0.43 | 91 | 1008.8 |
| 20260507091722 | 10 | 290 | 1.6 | 6.4 | 0.00 | 0.76 | 0.43 | 91 | 1009.0 |
| 20260507091240 | 10 | 289 | 4.8 | 6.4 | 0.00 | 0.76 | 0.43 | 91 | 1008.9 |
| 20260507090748 | 10 | 294 | 0.0 | 9.7 | 0.03 | 0.76 | 0.43 | 91 | 1009.0 |
| 20260507090241 | 10 | 285 | 3.2 | 9.7 | 0.03 | 0.76 | 0.43 | 91 | 1008.8 |
| 20260507085731 | 10 | 325 | 0.0 | 6.4 | 0.03 | 0.76 | 0.43 | 91 | 1008.7 |
| 20260507085221 | 10 | 324 | 3.2 | 8.0 | 0.03 | 0.76 | 0.43 | 91 | 1008.8 |
| 20260507084739 | 10 | 302 | 1.6 | 8.0 | 0.03 | 0.76 | 0.43 | 91 | 1008.7 |
| 20260507084233 | 10 | 273 | 0.0 | 8.0 | 0.03 | 0.76 | 0.43 | 91 | 1008.7 |
| 20260507083749 | 10 | 273 | 1.6 | 9.7 | 0.03 | 0.76 | 0.43 | 91 | 1008.6 |
| 20260507083244 | 10 | 317 | 3.2 | 9.7 | 0.03 | 0.76 | 0.43 | 91 | 1008.6 |
| 20260507082801 | 10 | 302 | 3.2 | 12.9 | 0.03 | 0.76 | 0.43 | 91 | 1008.5 |
| 20260507082233 | 10 | 319 | 1.6 | 12.9 | 0.03 | 0.76 | 0.43 | 90 | 1008.6 |
| 20260507081739 | 10 | 5 | 1.6 | 11.3 | 0.03 | 0.76 | 0.43 | 90 | 1008.7 |
| 20260507081231 | 10 | 342 | 9.7 | 11.3 | 0.03 | 0.76 | 0.43 | 90 | 1008.8 |
| 20260507080742 | 10 | 294 | 3.2 | 8.0 | 0.00 | 0.74 | 0.41 | 90 | 1008.9 |
| 20260507080232 | 10 | 286 | 1.6 | 8.0 | 0.00 | 0.74 | 0.41 | 90 | 1009.0 |
| 20260507075721 | 10 | 11 | 3.2 | 8.0 | 0.00 | 0.74 | 0.41 | 90 | 1009.0 |
| 20260507075237 | 10 | 281 | 1.6 | 11.3 | 0.00 | 0.74 | 0.41 | 90 | 1009.3 |
| 20260507074744 | 10 | 257 | 6.4 | 11.3 | 0.03 | 0.74 | 0.41 | 90 | 1009.4 |
| 20260507074241 | 10 | 279 | 3.2 | 9.7 | 0.03 | 0.74 | 0.41 | 90 | 1009.3 |
| 20260507073735 | 10 | 279 | 1.6 | 9.7 | 0.05 | 0.74 | 0.41 | 90 | 1009.2 |
| 20260507073245 | 10 | 290 | 3.2 | 12.9 | 0.05 | 0.74 | 0.41 | 90 | 1009.1 |
| 20260507072735 | 10 | 5 | 4.8 | 9.7 | 0.05 | 0.74 | 0.41 | 90 | 1008.9 |
| 20260507072244 | 10 | 355 | 1.6 | 12.9 | 0.05 | 0.74 | 0.41 | 90 | 1009.1 |
| 20260507071756 | 10 | 289 | 3.2 | 16.1 | 0.08 | 0.74 | 0.41 | 90 | 1009.2 |
| 20260507071222 | 10 | 234 | 3.2 | 16.1 | 0.08 | 0.74 | 0.41 | 90 | 1009.0 |
| 20260507070803 | 10 | 300 | 4.8 | 11.3 | 0.08 | 0.74 | 0.41 | 89 | 1008.8 |
| 20260507070250 | 10 | 305 | 4.8 | 11.3 | 0.10 | 0.74 | 0.41 | 90 | 1008.8 |
| 20260507065743 | 11 | 5 | 1.6 | 11.3 | 0.10 | 0.74 | 0.41 | 90 | 1008.7 |
| 20260507065234 | 11 | 302 | 3.2 | 11.3 | 0.15 | 0.74 | 0.41 | 90 | 1008.7 |
| 20260507064723 | 11 | 328 | 3.2 | 11.3 | 0.28 | 0.71 | 0.38 | 90 | 1009.0 |
| 20260507064240 | 11 | 25 | 1.6 | 6.4 | 0.36 | 0.71 | 0.38 | 90 | 1008.8 |
| 20260507063731 | 11 | 266 | 1.6 | 8.0 | 0.36 | 0.69 | 0.36 | 90 | 1008.7 |
| 20260507063244 | 11 | 329 | 1.6 | 8.0 | 0.36 | 0.69 | 0.36 | 89 | 1009.0 |
| 20260507062736 | 11 | 281 | 4.8 | 9.7 | 0.36 | 0.69 | 0.36 | 89 | 1009.4 |
| 20260507062226 | 11 | 270 | 1.6 | 6.4 | 0.36 | 0.69 | 0.36 | 88 | 1008.5 |
| 20260507061742 | 11 | 360 | 0.0 | 9.7 | 0.33 | 0.66 | 0.33 | 88 | 1008.4 |
| 20260507061248 | 11 | 261 | 4.8 | 11.3 | 0.33 | 0.66 | 0.33 | 88 | 1009.1 |
| 20260507060719 | 11 | 319 | 4.8 | 11.3 | 0.33 | 0.66 | 0.33 | 88 | 1008.9 |
| 20260507060238 | 11 | 252 | 6.4 | 8.0 | 0.30 | 0.64 | 0.30 | 87 | 1009.0 |
| 20260507055725 | 12 | 314 | 1.6 | 8.0 | 0.30 | 0.64 | 0.30 | 86 | 1008.6 |
| 20260507055219 | 12 | 298 | 0.0 | 12.9 | 0.25 | 0.58 | 0.25 | 85 | 1008.3 |
| 20260507054737 | 12 | 38 | 3.2 | 20.9 | 0.13 | 0.46 | 0.13 | 84 | 1008.5 |
| 20260507054225 | 12 | 247 | 9.7 | 20.9 | 0.03 | 0.36 | 0.03 | 83 | 1009.5 |
| 20260507053740 | 12 | 302 | 0.0 | 11.3 | 0.00 | 0.33 | 0.00 | 83 | 1008.5 |
| 20260507053229 | 12 | 291 | 4.8 | 9.7 | 0.00 | 0.33 | 0.00 | 82 | 1008.2 |
| 20260507052721 | 12 | 316 | 1.6 | 3.2 | 0.00 | 0.33 | 0.00 | 82 | 1007.7 |
| 20260507052238 | 12 | 248 | 0.0 | 9.7 | 0.00 | 0.33 | 0.00 | 82 | 1007.7 |
| 20260507051746 | 12 | 315 | 4.8 | 9.7 | 0.00 | 0.33 | 0.00 | 81 | 1008.2 |
| 20260507051239 | 12 | 360 | 1.6 | 9.7 | 0.00 | 0.33 | 0.00 | 82 | 1007.9 |
| 20260507050729 | 13 | 279 | 0.0 | 9.7 | 0.00 | 0.33 | 0.00 | 82 | 1007.9 |
| 20260507050221 | 13 | 304 | 1.6 | 12.9 | 0.00 | 0.33 | 0.00 | 81 | 1007.7 |
| 20260507045739 | 13 | 316 | 4.8 | 12.9 | 0.00 | 0.33 | 0.00 | 81 | 1007.6 |
| 20260507045256 | 13 | 304 | 1.6 | 8.0 | 0.00 | 0.33 | 0.00 | 82 | 1007.5 |
| 20260507044745 | 13 | 321 | 3.2 | 9.7 | 0.00 | 0.33 | 0.00 | 82 | 1007.6 |
| 20260507044235 | 13 | 28 | 1.6 | 12.9 | 0.00 | 0.33 | 0.00 | 83 | 1007.4 |
| 20260507043722 | 13 | 321 | 6.4 | 12.9 | 0.00 | 0.33 | 0.00 | 83 | 1007.8 |
| 20260507043237 | 13 | 360 | 0.0 | 9.7 | 0.00 | 0.33 | 0.00 | 84 | 1007.8 |
| 20260507042729 | 13 | 316 | 4.8 | 9.7 | 0.00 | 0.33 | 0.00 | 84 | 1008.0 |
| 20260507042238 | 13 | 342 | 1.6 | 8.0 | 0.00 | 0.33 | 0.00 | 85 | 1008.0 |
| 20260507041728 | 13 | 302 | 1.6 | 16.1 | 0.00 | 0.33 | 0.00 | 85 | 1008.0 |
| 20260507041243 | 13 | 40 | 1.6 | 16.1 | 0.00 | 0.33 | 0.00 | 85 | 1008.0 |
| 20260507040734 | 13 | 325 | 4.8 | 9.7 | 0.00 | 0.33 | 0.33 | 86 | 1008.0 |
| 20260507040243 | 13 | 342 | 1.6 | 6.4 | 0.00 | 0.33 | 0.33 | 86 | 1007.7 |
| 20260507035733 | 14 | 329 | 3.2 | 11.3 | 0.03 | 0.33 | 0.33 | 86 | 1007.6 |
| 20260507035222 | 14 | 340 | 3.2 | 8.0 | 0.03 | 0.33 | 0.33 | 86 | 1007.6 |
| 20260507034739 | 14 | 316 | 4.8 | 14.5 | 0.03 | 0.33 | 0.33 | 85 | 1007.8 |
| 20260507034246 | 15 | 311 | 4.8 | 14.5 | 0.08 | 0.33 | 0.33 | 85 | 1007.9 |